FW6498 Weather Reports


time (UTC)temp
C
wind
direction
speed
KPH
gust
KPH
rain 1hr
cm
rain 24hr
cm
rain mn
cm
humidity
%
barometer
mb
20260505224003 17 162 3.2 20.9 0.00 0.00 0.00 63 1007.7
20260505223502 17 155 3.2 22.5 0.00 0.00 0.00 62 1007.7
20260505223003 17 153 3.2 22.5 0.00 0.00 0.00 62 1007.7
20260505222502 17 164 3.2 22.5 0.00 0.00 0.00 61 1007.8
20260505222002 17 169 4.8 27.4 0.00 0.00 0.00 61 1007.9
20260505221502 17 172 4.8 27.4 0.00 0.00 0.00 61 1007.8
20260505221002 17 167 1.6 20.9 0.00 0.00 0.00 61 1007.7
20260505220003 17 178 1.6 27.4 0.00 0.00 0.00 60 1007.9
20260505215501 17 167 3.2 27.4 0.00 0.00 0.00 59 1007.9
20260505215002 17 155 1.6 19.3 0.00 0.00 0.00 59 1007.9
20260505214501 17 155 3.2 25.7 0.00 0.00 0.00 59 1007.7
20260505213002 18 166 4.8 22.5 0.00 0.00 0.00 58 1007.8
20260505212501 18 154 3.2 27.4 0.00 0.00 0.00 58 1007.8
20260505212003 18 152 3.2 27.4 0.00 0.00 0.00 58 1007.8
20260505211503 18 152 4.8 32.2 0.00 0.00 0.00 57 1007.8
20260505211004 18 162 4.8 32.2 0.00 0.00 0.00 58 1007.7
20260505210502 18 164 6.4 29.0 0.00 0.00 0.00 58 1007.7
20260505210003 18 153 9.7 38.6 0.00 0.00 0.00 58 1007.9
20260505205501 18 155 11.3 38.6 0.00 0.00 0.00 57 1007.8
20260505205003 18 158 8.0 33.8 0.00 0.00 0.00 57 1007.7
20260505204503 18 156 3.2 30.6 0.00 0.00 0.00 57 1007.8
20260505204002 18 163 4.8 22.5 0.00 0.00 0.00 56 1007.8
20260505203004 18 168 4.8 20.9 0.00 0.00 0.00 56 1007.8
20260505202003 18 165 8.0 27.4 0.00 0.00 0.00 55 1007.9
20260505201502 18 156 6.4 25.7 0.00 0.00 0.00 54 1007.9
20260505201003 18 150 4.8 27.4 0.00 0.00 0.00 54 1007.9
20260505200504 18 153 4.8 27.4 0.00 0.00 0.00 54 1007.8
20260505195501 18 177 4.8 24.1 0.00 0.00 0.00 54 1007.9
20260505195003 18 182 6.4 29.0 0.00 0.00 0.00 53 1007.8
20260505194502 19 185 6.4 29.0 0.00 0.00 0.00 53 1007.9
20260505194003 19 176 6.4 29.0 0.00 0.00 0.00 53 1007.9
20260505193502 19 172 6.4 29.0 0.00 0.00 0.00 52 1008.1
20260505193003 19 185 6.4 41.8 0.00 0.00 0.00 51 1008.0
20260505192502 19 191 6.4 41.8 0.00 0.00 0.00 51 1007.9
20260505192003 19 184 3.2 27.4 0.00 0.00 0.00 50 1008.0
20260505191502 19 160 3.2 25.7 0.00 0.00 0.00 50 1007.9
20260505191002 20 152 6.4 32.2 0.00 0.00 0.00 50 1007.9
20260505190502 20 158 6.4 32.2 0.00 0.00 0.00 49 1007.8
20260505190002 20 167 3.2 25.7 0.00 0.00 0.00 49 1007.8
20260505185004 20 174 3.2 17.7 0.00 0.00 0.00 49 1007.7
20260505184004 20 170 8.0 27.4 0.00 0.00 0.00 48 1007.7
20260505183501 20 174 4.8 27.4 0.00 0.00 0.00 48 1007.7
20260505183004 20 158 1.6 17.7 0.00 0.00 0.00 49 1007.5
20260505182502 20 168 4.8 30.6 0.00 0.00 0.00 48 1007.6
20260505182004 20 177 8.0 30.6 0.00 0.00 0.00 47 1007.5
20260505181502 20 181 8.0 27.4 0.00 0.00 0.00 47 1007.6
20260505181003 20 183 9.7 35.4 0.00 0.00 0.00 47 1007.5
20260505180502 20 184 11.3 35.4 0.00 0.00 0.00 47 1007.7
20260505180004 21 175 12.9 32.2 0.00 0.00 0.00 47 1007.6
20260505175502 21 174 14.5 38.6 0.00 0.00 0.00 47 1007.6
20260505175003 21 175 16.1 38.6 0.00 0.00 0.00 46 1007.7
20260505173503 21 185 8.0 30.6 0.00 0.00 0.00 47 1007.8
20260505172502 21 193 6.4 29.0 0.00 0.00 0.00 46 1007.6
20260505172003 21 197 9.7 30.6 0.00 0.00 0.00 45 1007.6
20260505171502 22 198 14.5 30.6 0.00 0.00 0.00 44 1007.8
20260505171002 22 198 12.9 35.4 0.00 0.00 0.00 44 1007.7
20260505170502 23 186 12.9 35.4 0.00 0.00 0.00 43 1007.6
20260505170004 23 175 16.1 37.0 0.00 0.00 0.00 43 1007.6
20260505165502 23 178 12.9 37.0 0.00 0.00 0.00 42 1007.5
20260505165003 23 186 9.7 32.2 0.00 0.00 0.00 43 1007.5
20260505164502 23 198 9.7 32.2 0.00 0.00 0.00 43 1007.6
20260505164003 23 195 11.3 33.8 0.00 0.00 0.00 42 1007.4
20260505163502 23 194 14.5 45.1 0.00 0.00 0.00 41 1007.4
20260505163004 24 196 19.3 49.9 0.00 0.00 0.00 41 1007.6
20260505162003 25 190 17.7 49.9 0.00 0.00 0.00 41 1007.4
20260505161503 25 187 16.1 49.9 0.00 0.00 0.00 40 1007.5
20260505161004 25 189 14.5 41.8 0.00 0.00 0.00 41 1007.2
20260505153003 26 185 12.9 51.5 0.00 0.00 0.00 38 1007.4
20260505152502 26 189 16.1 37.0 0.00 0.00 0.00 37 1007.4
20260505152003 26 169 14.5 38.6 0.00 0.00 0.00 38 1007.4
20260505151003 26 161 19.3 43.5 0.00 0.00 0.00 38 1007.3
20260505150502 26 156 16.1 43.5 0.00 0.00 0.00 37 1007.6
20260505140502 26 160 9.7 41.8 0.00 0.00 0.00 37 1007.9
20260505125003 26 192 17.7 43.5 0.00 0.00 0.00 28 1008.4
20260505124503 27 183 12.9 40.2 0.00 0.00 0.00 29 1008.5
20260505124003 26 183 8.0 33.8 0.00 0.00 0.00 31 1008.6
20260505122502 26 173 11.3 41.8 0.00 0.00 0.00 27 1008.6
20260505122004 26 174 9.7 32.2 0.00 0.00 0.00 30 1008.7
20260505121502 25 186 9.7 32.2 0.00 0.00 0.00 32 1008.8
20260505121003 25 179 9.7 27.4 0.00 0.00 0.00 33 1008.9
20260505120502 25 162 11.3 32.2 0.00 0.00 0.00 33 1009.2
20260505120004 25 165 11.3 33.8 0.00 0.00 0.00 32 1009.3
20260505115502 25 173 9.7 33.8 0.00 0.00 0.00 31 1009.1
20260505115003 25 172 9.7 37.0 0.00 0.00 0.00 31 1009.2
20260505114502 25 161 9.7 37.0 0.00 0.00 0.00 31 1009.1
20260505114003 25 151 6.4 37.0 0.00 0.00 0.00 32 1009.1
20260505113503 25 184 6.4 29.0 0.00 0.00 0.00 34 1009.1
20260505113003 25 186 12.9 29.0 0.00 0.00 0.00 33 1009.1
20260505112502 25 185 12.9 33.8 0.00 0.00 0.00 31 1009.2
20260505112003 25 183 4.8 33.8 0.00 0.00 0.00 31 1009.3
20260505111502 25 166 1.6 20.9 0.00 0.00 0.00 35 1009.4
20260505111003 25 159 4.8 20.9 0.00 0.00 0.00 34 1009.3
20260505110503 25 157 3.2 17.7 0.00 0.00 0.00 34 1009.3
20260505102003 25 171 8.0 29.0 0.00 0.00 0.00 33 1009.9
20260505101502 25 173 8.0 29.0 0.00 0.00 0.00 34 1009.8
20260505101003 24 171 9.7 38.6 0.00 0.00 0.00 36 1010.1
20260505100502 24 170 8.0 38.6 0.00 0.00 0.00 37 1010.0
20260505100003 24 176 4.8 27.4 0.00 0.00 0.00 37 1010.0
20260505095502 23 175 6.4 27.4 0.00 0.00 0.00 38 1010.0
20260505095003 23 188 6.4 25.7 0.00 0.00 0.00 38 1010.0
20260505094502 23 192 6.4 25.7 0.00 0.00 0.00 37 1010.1
20260505094003 23 181 3.2 19.3 0.00 0.00 0.00 38 1010.2
20260505093503 23 165 1.6 17.7 0.00 0.00 0.00 38 1010.1
20260505093004 23 161 3.2 24.1 0.00 0.00 0.00 38 1010.2
20260505092503 23 168 3.2 24.1 0.00 0.00 0.00 38 1010.2
20260505092003 23 158 3.2 25.7 0.00 0.00 0.00 38 1010.3
20260505091503 22 152 3.2 25.7 0.00 0.00 0.00 38 1010.3
20260505091003 22 182 4.8 22.5 0.00 0.00 0.00 39 1010.4
20260505090503 22 194 6.4 27.4 0.00 0.00 0.00 40 1010.4
20260505090003 22 194 6.4 27.4 0.00 0.00 0.00 39 1010.4
20260505085502 22 192 6.4 29.0 0.00 0.00 0.00 39 1010.4
20260505085003 22 184 4.8 29.0 0.00 0.00 0.00 38 1010.5
20260505084502 22 178 4.8 25.7 0.00 0.00 0.00 39 1010.5
20260505084003 22 184 6.4 32.2 0.00 0.00 0.00 39 1010.5
20260505083503 21 190 8.0 32.2 0.00 0.00 0.00 41 1010.5
20260505083004 21 194 9.7 32.2 0.00 0.00 0.00 39 1010.5
20260505082003 21 184 6.4 27.4 0.00 0.00 0.00 41 1010.6
20260505081502 21 176 8.0 25.7 0.00 0.00 0.00 41 1010.6
20260505081003 21 176 8.0 27.4 0.00 0.00 0.00 41 1010.7
20260505080503 20 175 4.8 27.4 0.00 0.00 0.00 41 1010.7
20260505080005 20 178 6.4 29.0 0.00 0.00 0.00 42 1010.6
20260505075502 20 189 9.7 29.0 0.00 0.00 0.00 43 1010.7
20260505075003 20 194 8.0 27.4 0.00 0.00 0.00 44 1010.7
20260505074503 20 190 4.8 27.4 0.00 0.00 0.00 45 1010.8
20260505073502 20 189 6.4 24.1 0.00 0.00 0.00 45 1010.7
20260505073003 20 188 6.4 29.0 0.00 0.00 0.00 46 1010.7
20260505072503 19 189 6.4 29.0 0.00 0.00 0.00 45 1010.9
20260505071503 19 190 4.8 22.5 0.00 0.00 0.00 46 1011.0
20260505071004 19 193 4.8 24.1 0.00 0.00 0.00 47 1011.0
20260505070503 19 192 8.0 24.1 0.00 0.00 0.00 47 1011.0
20260505070004 19 191 8.0 24.1 0.00 0.00 0.00 46 1011.1
20260505064503 18 197 4.8 29.0 0.00 0.00 0.00 48 1011.0
20260505063004 18 189 1.6 16.1 0.00 0.00 0.00 49 1011.2
20260505062003 17 201 1.6 22.5 0.00 0.00 0.00 53 1011.2
20260505061502 16 195 0.0 8.0 0.00 0.00 0.00 57 1011.3
20260505061004 15 0 0.0 0.0 0.00 0.00 0.00 63 1011.2
20260505060004 14 0 0.0 0.0 0.00 0.00 0.00 64 1011.3
20260505055503 14 0 0.0 0.0 0.00 0.00 0.00 66 1011.3
20260505055004 13 0 0.0 0.0 0.00 0.00 0.00 66 1011.3
20260505054003 13 0 0.0 0.0 0.00 0.00 0.00 64 1011.2
20260505053502 13 0 0.0 0.0 0.00 0.00 0.00 62 1011.1
20260505052003 12 0 0.0 0.0 0.00 0.00 0.00 66 1011.1
20260505051503 12 0 0.0 0.0 0.00 0.00 0.00 67 1011.2
20260505051004 12 0 0.0 0.0 0.00 0.00 0.00 67 1011.4
20260505050502 11 0 0.0 0.0 0.00 0.00 0.00 67 1011.4
20260505041502 10 14 0.0 1.6 0.00 0.00 0.00 67 1011.3
20260505041004 10 14 0.0 1.6 0.00 0.00 0.00 68 1011.4
20260505040503 10 0 0.0 0.0 0.00 0.00 0.00 67 1011.3
20260505035503 10 0 0.0 0.0 0.00 0.00 0.00 67 1011.5
20260505035005 10 0 0.0 0.0 0.00 0.00 0.00 67 1011.5
20260505034003 10 0 0.0 0.0 0.00 0.00 0.00 67 1011.4
20260505033003 10 12 0.0 4.8 0.00 0.00 0.00 67 1011.5
20260505032502 10 12 0.0 4.8 0.00 0.00 0.00 67 1011.4
20260505032005 10 0 0.0 0.0 0.00 0.00 0.00 67 1011.5
20260505031005 10 352 0.0 6.4 0.00 0.00 0.00 67 1011.5
20260505030502 10 7 0.0 3.2 0.00 0.00 0.00 67 1011.5
20260505030004 10 0 0.0 0.0 0.00 0.00 0.00 68 1011.5
20260505025503 10 0 0.0 0.0 0.00 0.00 0.00 70 1011.6
20260505025003 10 0 0.0 0.0 0.00 0.00 0.00 67 1011.6
20260505024503 10 0 0.0 0.0 0.00 0.00 0.00 66 1011.7
20260505024004 10 0 0.0 0.0 0.00 0.00 0.00 66 1011.7
20260505023502 10 0 0.0 0.0 0.00 0.00 0.00 66 1011.7
20260505022503 10 0 0.0 0.0 0.00 0.00 0.00 65 1011.9
20260505022004 11 0 0.0 0.0 0.00 0.00 0.00 65 1011.9
20260505021004 10 0 0.0 0.0 0.00 0.00 0.00 65 1011.9
20260505020503 10 26 0.0 3.2 0.00 0.00 0.00 65 1011.8
20260505020003 10 26 0.0 3.2 0.00 0.00 0.00 66 1012.0
20260505015503 10 0 0.0 0.0 0.00 0.00 0.00 66 1011.9
20260505015004 10 0 0.0 0.0 0.00 0.00 0.00 66 1011.8
20260505014502 10 0 0.0 0.0 0.00 0.00 0.00 67 1011.9
20260505014004 10 0 0.0 0.0 0.00 0.00 0.00 66 1011.9
20260505013502 10 0 0.0 0.0 0.00 0.00 0.00 66 1012.0
20260505013004 11 0 0.0 0.0 0.00 0.00 0.00 66 1012.0
20260505012502 11 0 0.0 0.0 0.00 0.00 0.00 66 1012.0
20260505012004 11 0 0.0 0.0 0.00 0.00 0.00 66 1012.0
20260505011503 11 0 0.0 0.0 0.00 0.00 0.00 66 1012.1
20260505011003 11 0 0.0 0.0 0.00 0.00 0.00 66 1012.2
20260505010004 11 0 0.0 0.0 0.00 0.00 0.00 65 1012.3
20260505005503 11 0 0.0 0.0 0.00 0.00 0.00 65 1012.3
20260505005004 11 0 0.0 0.0 0.00 0.00 0.00 65 1012.3
20260505004502 11 0 0.0 0.0 0.00 0.00 0.00 65 1012.4
20260505004004 11 0 0.0 0.0 0.00 0.00 0.00 65 1012.4
20260505003504 11 0 0.0 0.0 0.00 0.00 0.00 64 1012.5
20260505003003 11 0 0.0 0.0 0.00 0.00 0.00 65 1012.5
20260505002503 11 0 0.0 0.0 0.00 0.00 0.00 64 1012.5
20260505002003 11 0 0.0 0.0 0.00 0.00 0.00 64 1012.7
20260505001502 11 0 0.0 0.0 0.00 0.00 0.00 64 1012.8
20260505001003 11 0 0.0 0.0 0.00 0.00 0.00 63 1012.8
20260505000503 11 0 0.0 0.0 0.00 0.00 0.00 63 1012.7
20260504234502 11 0 0.0 0.0 0.00 0.00 0.00 63 1012.9
20260504233503 11 0 0.0 0.0 0.00 0.00 0.00 63 1012.8
20260504232504 12 0 0.0 0.0 0.00 0.00 0.00 62 1012.8
20260504232003 12 0 0.0 0.0 0.00 0.00 0.00 62 1013.0
20260504231503 12 0 0.0 0.0 0.00 0.00 0.00 62 1013.0
20260504231004 12 0 0.0 0.0 0.00 0.00 0.00 62 1013.1
20260504230503 12 0 0.0 0.0 0.00 0.00 0.00 62 1013.1
20260504230003 12 0 0.0 0.0 0.00 0.00 0.00 62 1013.1
20260504225503 12 0 0.0 0.0 0.00 0.00 0.00 61 1013.2
20260504224503 12 0 0.0 0.0 0.00 0.00 0.00 60 1013.3